Location: Hidden Cove Mobile Home Park
(41.4119°N, 81.5006°W)
Time: 01:57:11
(UTC+00:00)

Daily predictions for brighter satellites

Satellite Brightness Start Highest point End
(mag) Time Altitude Azimuth Time Altitude Azimuth Time Altitude Azimuth
SL-24 R/B 4.3 01:28:59 10° SSE 01:33:52 71° ENE 01:38:08 10° N
Cosmos 676 Rocket 4.4 01:29:25 10° S 01:34:24 42° ESE 01:39:24 10° NNE
CARTOSAT-1 3.9 01:32:12 10° S 01:36:25 69° WSW 01:40:41 10° NNW
CZ-4C R/B 4.0 01:33:10 10° NNE 01:37:03 37° E 01:40:52 10° SSE
DELTA 2 DEB (DPAF) 4.1 01:32:59 10° NNE 01:37:14 85° WNW 01:41:26 10° SSW
Cosmos 1190 Rocket 4.0 01:32:27 10° SSW 01:37:44 77° ESE 01:43:04 10° NNE
Cosmos 1697 Rocket 4.2 01:34:09 10° NW 01:39:11 35° WSW 01:44:11 10° SSW
SPOT 5 3.4 01:35:49 10° SE 01:39:44 36° ENE 01:43:44 10° N
Cosmos 1553 Rocket 4.3 01:35:11 10° N 01:41:14 53° E 01:47:20 10° SSE
CSL-04 Rocket 4.1 01:40:27 10° S 01:45:41 64° W 01:51:00 10° NNW
Cosmos 1470 Rocket 3.5 01:42:19 10° N 01:46:42 89° E 01:51:00 10° S
Okean O Rocket 2.0 01:42:39 10° S 01:47:01 65° WSW 01:51:23 10° NNW
Tiangong -1.9 01:44:31 10° W 01:47:38 57° SSW 01:50:36 11° ESE
SL-4 R/B 4.3 01:46:33 10° WNW 01:49:35 23° NNW 01:52:47 10° NE
Cosmos 1766 3.7 01:50:34 10° NNW 01:54:16 58° W 01:57:55 10° S
ERS-1 Rocket 3.8 01:50:48 10° SE 01:55:19 36° ENE 01:59:54 10° N
COSMOS 2406 3.8 01:50:57 10° SW 01:56:39 65° WNW 02:02:23 10° NNE
Cosmos 1400 Rocket 3.9 01:53:37 11° SSE 01:56:44 25° E 01:59:56 10° NE
Cosmos 1980 Rocket 2.8 01:51:41 10° NNW 01:57:13 54° WSW 02:02:42 10° S
Cosmos 1674 3.0 01:55:01 10° SSW 01:58:26 61° W 02:01:52 10° N
Cosmos 2322 Rocket 3.6 01:53:48 10° N 01:58:27 25° NE 02:03:05 10° ESE
Cosmos 1763 Rocket 3.6 01:54:29 10° NNW 01:59:45 82° WSW 02:04:53 10° SSE
ATLAS CENTAUR R/B 2.2 02:01:46 10° SSE 02:04:30 22° ESE 02:07:18 10° ENE
USA 234 3.2 01:58:06 10° NE 02:04:39 72° SE 02:11:09 10° SW
Spot 2 Rocket 4.4 02:02:19 13° SE 02:06:20 34° ENE 02:10:54 10° N
Cosmos 1441 Rocket 3.3 02:04:41 10° N 02:08:15 54° ENE 02:11:04 15° SSE
Cosmos 2278 3.9 02:04:52 10° NNW 02:10:32 60° ENE 02:15:10 15° SE
Cosmos 1933 Rocket 3.5 02:06:28 10° N 02:10:55 83° E 02:15:12 11° S
Meteor 1-13 Rocket 4.3 02:06:25 10° S 02:12:12 70° E 02:17:52 10° NNE
Resurs 01 Rocket 3.7 02:12:34 10° SSW 02:16:09 24° W 02:19:45 10° NW
Cosmos 1908 3.0 02:12:53 10° N 02:16:30 76° E 02:19:19 16° SSE
MOS 1 4.5 02:11:34 10° S 02:17:12 75° WSW 02:22:52 10° NNW
Terra 2.1 02:16:11 16° SE 02:19:43 50° ENE 02:24:17 10° N
Cosmos 2219 Rocket 4.2 02:20:11 10° N 02:23:52 17° NE 02:27:33 10° E
Cosmos 2237 4.3 02:20:15 10° NNW 02:26:00 71° ENE 02:30:11 19° SE
Cosmos 1470 3.3 02:22:26 10° NNW 02:26:02 51° W 02:29:33 10° S
ARGOS Delta rocket 3.8 02:23:05 12° S 02:27:16 74° W 02:31:40 10° NNW
Cosmos 468 Rocket 4.3 02:25:36 10° NNW 02:30:46 66° WSW 02:35:02 15° S
Ariane Rocket 3.3 02:27:25 19° SE 02:30:57 54° ENE 02:35:55 10° N
SL-27 R/B 2.7 02:38:03 31° E 02:38:03 31° E 02:40:31 10° NE
SL-14 R/B 3.4 02:37:34 25° SSE 02:39:24 48° E 02:43:04 10° NNE
Cosmos 1707 Rocket 4.0 02:38:10 23° SSE 02:40:29 43° E 02:44:42 10° NNE
Cosmos 2315 Rocket 4.3 02:34:16 10° N 02:40:32 56° E 02:44:42 22° SSE
SJ 16-02 2.3 02:40:03 24° SE 02:41:08 27° E 02:44:46 10° NE
Cosmos 1850 Rocket 3.9 02:38:47 10° S 02:43:58 68° ESE 02:49:09 10° NNE
ATLAS 2AS CENTAUR R/B 3.4 02:38:48 10° NNW 02:45:17 44° NE 02:50:04 17° ESE
Landsat 4 3.5 02:44:04 32° SE 02:45:28 63° ENE 02:48:52 10° N
Meteor 1-4 Rocket 3.9 02:49:24 18° ENE 02:49:24 18° ENE 02:51:05 10° NE
Cosmos 2360 Rocket 2.8 02:43:34 10° NNW 02:49:01 46° ENE 02:52:15 23° ESE
Cosmos 1346 Rocket 3.3 02:46:20 10° N 02:50:00 41° ENE 02:51:15 31° ESE
Meteor 1-23 Rocket 4.2 02:47:06 12° S 02:52:26 90° SE 02:58:12 10° N
RESURS DK-1 2.3 02:49:51 10° NNW 02:53:55 70° ENE 02:55:35 34° SE
SPOT 3 Rocket 3.5 02:51:36 24° SSE 02:54:44 83° ENE 02:59:55 10° NNW
Meteor 1-15 Rocket 4.3 02:51:42 10° NNW 02:57:16 75° W 03:01:06 21° S
SL-16 R/B 2.3 02:54:16 10° NNW 02:59:55 73° WSW 03:03:14 26° S
Cosmos 968 Rocket 3.4 02:57:17 20° S 03:00:47 66° ESE 03:05:56 10° NNE
Cosmos 2333 Rocket 2.6 02:56:30 10° NNW 03:02:09 54° ENE 03:05:07 27° SE
MOS 1 Rocket 3.7 02:59:26 23° S 03:02:53 77° WSW 03:08:14 10° NNW
USA 281 4.5 02:58:49 15° ESE 03:03:14 30° NE 03:08:46 10° N
Cosmos 1741 Rocket 4.0 02:58:42 10° SSW 03:03:57 85° WNW 03:09:17 10° NNE
Cosmos 1733 Rocket 3.1 02:59:44 10° N 03:04:07 64° E 03:05:48 36° SSE
SeaSat 1 2.8 03:02:21 25° S 03:05:05 56° WSW 03:09:56 10° NW
Cosmos 1758 3.2 03:04:58 10° N 03:08:53 83° W 03:10:17 38° S
Cosmos 1455 3.8 03:07:42 10° NNE 03:10:14 19° ENE 03:10:21 19° ENE
Atlas Centaur 2 3.7 03:04:07 10° WSW 03:11:21 34° S 03:14:19 27° SSE
Okean 1-7 3.6 03:11:24 35° ESE 03:12:10 38° E 03:16:11 10° NNE
Cosmos 1833 4.1 03:08:31 17° SSW 03:12:54 75° ESE 03:18:32 10° NNE
GP-B 4.5 03:12:07 10° NNE 03:15:38 23° E 03:16:05 22° E
Cosmos 2228 Rocket 3.7 03:18:36 20° SSW 03:21:36 57° W 03:26:07 10° N
Cosmos 1241 Rocket 4.3 03:18:42 16° SSW 03:23:42 71° ESE 03:29:54 10° NE
Tiangong 0.4 03:22:03 10° WSW 03:22:45 13° WSW 03:22:45 13° WSW
Spot 1 4.4 03:21:07 10° N 03:25:41 74° WNW 03:28:28 25° SSW
Meteor 1-16 Rocket 4.4 03:19:54 10° N 03:25:49 68° ENE 03:28:18 36° SSE
Cosmos 1356 Rocket 4.3 03:25:56 20° SW 03:28:29 47° WNW 03:32:34 10° N
Cosmos 2333 4.3 03:26:11 10° NNW 03:31:59 72° ENE 03:34:15 38° SE
MetOp-A 4.0 03:30:40 39° S 03:32:42 85° WSW 03:38:00 10° NNW
Okean 2 3.2 03:36:15 63° SE 03:36:42 70° E 03:40:41 10° NNE
Meteor 2-20 Rocket 4.4 03:32:23 10° N 03:38:40 78° E 03:41:04 39° SSE
ATLAS CENTAUR R/B 3.2 03:39:03 10° WSW 03:42:01 25° NW 03:45:04 10° N
Cosmos 1300 4.0 03:39:18 10° NNW 03:42:25 29° W 03:43:15 26° WSW
Cosmos 2322 Rocket 2.7 03:37:17 10° NNW 03:42:46 51° WSW 03:44:58 33° SSW
Cosmos 2297 Rocket 3.9 03:47:54 17° E 03:47:54 17° E 03:51:04 10° ENE
Aureole 3 4.3 03:48:02 32° SW 03:49:24 45° WNW 03:53:50 10° N
Cosmos 1315 Rocket 2.8 03:49:43 62° SW 03:50:17 75° W 03:54:17 10° N
PSLV R/B 4.4 03:46:32 10° NNE 03:50:01 43° E 03:50:01 43° E
Cosmos 1953 2.0 03:50:47 10° N 03:54:38 83° E 03:54:38 83° E
Cosmos 1703 Rocket 3.4 03:55:53 66° SSE 03:56:25 78° E 04:00:53 10° N
Terra 4.1 03:54:54 11° SW 03:57:35 17° W 04:00:35 10° NW
COSMOS 2428 3.3 04:01:52 10° NNW 04:07:22 47° ENE 04:09:13 35° ESE
Cosmos 2219 Rocket 2.1 04:02:49 10° NNW 04:08:31 81° WSW 04:09:56 53° S
CZ-2C R/B 3.6 04:04:53 10° N 04:09:18 78° WNW 04:10:01 61° SW
Cosmos 2242 Rocket 4.3 04:10:52 39° E 04:10:52 39° E 04:15:01 10° NNE
Cosmos 371 Rocket 4.2 04:12:01 34° E 04:12:01 34° E 04:15:55 10° NE
BlueWalker 3 2.4 04:15:31 54° NNE 04:15:31 54° NNE 04:18:32 10° NE
SJ 16-02 3.2 04:16:45 15° WSW 04:19:24 26° WNW 04:23:03 10° N
H-2A R/B 2.6 04:22:54 64° E 04:22:59 64° ENE 04:27:13 10° N
Cosmos 1709 Rocket 4.1 04:23:45 48° SE 04:25:20 62° E 04:31:36 10° NNE
COSMOS 2455 2.8 04:24:43 54° SSE 04:25:42 62° ESE 04:31:39 10° NE
CZ-4C R/B 2.2 04:28:06 47° E 04:28:06 47° E 04:32:28 10° NE
DNEPR-1 R/B 4.2 04:24:49 10° NW 04:31:04 61° WSW 04:31:50 55° SSW
ARIANE 5 R/B 2.8 04:31:12 55° WSW 04:31:17 55° W 04:35:32 10° NNW
Spot 4 3.8 04:31:54 65° ESE 04:32:21 71° ENE 04:37:08 10° N
Cosmos 2360 Rocket 3.6 04:28:08 10° NW 04:32:42 25° WSW 04:34:00 23° WSW
ATLAS 2AS CENTAUR R/B 3.3 04:29:56 10° NW 04:36:05 39° WSW 04:37:29 35° SW
Cosmos 1703 4.1 04:40:36 40° NE 04:40:36 40° NE 04:43:14 10° NNE
Cosmos 1570 Rocket 4.0 04:35:05 10° NNW 04:40:25 71° WSW 04:41:05 63° SSW
Cosmos 1455 4.0 04:41:48 10° NW 04:44:05 22° WNW 04:44:05 22° WNW
Cosmos 2333 Rocket 3.8 04:41:41 10° NW 04:45:58 22° W 04:47:07 21° WSW
USA 281 3.4 04:45:41 45° SSW 04:47:21 57° WSW 04:53:51 10° NNW
PSLV R/B 4.3 04:46:44 10° NNE 04:50:04 40° ENE 04:50:04 40° ENE
CZ-2C R/B 3.6 04:50:23 48° SW 04:51:40 66° W 05:08:20 10° N
Cosmos 2098 Rocket 4.3 04:45:43 10° N 04:52:16 59° E 04:53:52 46° SE
GP-B 4.4 04:48:56 10° NNW 04:52:47 30° W 04:53:24 29° W
Cosmos 158 Rocket 3.8 04:47:31 10° NNW 04:52:49 79° WSW 04:53:14 73° SSW
Cosmos 1782 Rocket 4.3 04:54:15 10° NNW 04:58:10 42° W 04:58:10 42° W
SL-16 R/B 4.5 04:56:21 10° N 05:00:07 18° NE 05:03:51 10° E
Cosmos 304 Rocket 3.6 05:01:27 89° SSW 05:01:28 90° SE 05:06:14 10° NNE
Cosmos 2237 Rocket 2.6 05:02:23 10° NNW 05:07:59 57° ENE 05:09:20 45° ESE
SL-4 R/B 3.3 05:05:05 10° NW 05:08:57 39° NNE 05:10:25 29° ENE
Meteor 1-24 Rocket 3.7 05:08:46 63° SSW 05:09:46 85° W 05:15:29 10° N
Cosmos 2322 4.2 05:04:45 10° NW 05:10:06 43° WSW 05:10:29 43° WSW
Cosmos 2227 Rocket 2.6 05:10:41 45° ESE 05:10:50 45° ESE 05:16:13 10° NE
Cosmos 773 Rocket 3.8 05:05:50 10° NNW 05:11:00 80° ENE 05:11:26 73° SE
Cosmos 2208 Rocket 4.4 05:09:04 10° NNW 05:14:00 46° WSW 05:14:06 46° WSW
H-2A R/B 2.6 05:10:55 10° NNE 05:14:25 48° ENE 05:14:25 48° ENE
Cosmos 2084 Rocket 4.0 05:18:12 52° NE 05:18:12 52° NE 05:21:27 10° NE
Cosmos 1980 3.7 05:15:25 10° NNW 05:21:06 78° ENE 05:22:05 61° SE
Cosmos 1503 Rocket 4.1 05:20:33 61° WSW 05:21:18 71° WNW 05:26:37 10° NNE
Cosmos 2151 Rocket 3.8 05:16:57 10° N 05:21:05 62° ENE 05:21:05 62° ENE
Cosmos 1825 3.6 05:23:12 30° NE 05:23:12 30° NE 05:25:13 10° NNE
Cosmos 1777 Rocket 3.9 05:21:43 72° SW 05:22:14 83° WNW 05:27:33 10° NNE
ALOS 2 3.2 05:23:09 45° W 05:23:09 45° W 05:26:59 10° NNW
SL-23 DEB 4.5 05:23:47 67° SW 05:24:32 87° SE 05:32:24 10° NE
GEOS 3 Rocket 3.5 05:20:06 10° NE 05:25:12 63° ESE 05:25:12 63° ESE
Okean 2 Rocket 3.2 05:23:37 10° N 05:27:55 68° ENE 05:27:55 68° ENE
Cosmos 2181 Rocket 3.8 05:23:57 10° N 05:30:10 88° W 05:31:22 61° S
BREEZE-M DEB (TANK) 4.3 05:22:24 10° WNW 05:30:19 37° N 05:33:16 10° ENE
Cosmos 2297 Rocket 2.4 05:29:40 51° WSW 05:30:54 65° WNW 05:36:32 10° NNE
Cosmos 1674 Rocket 3.6 05:32:54 75° N 05:32:54 75° N 05:36:54 10° N
Cosmos 2219 3.9 05:33:16 37° ESE 05:33:30 37° ESE 05:38:37 10° NE
Cosmos 1378 Rocket 3.7 05:34:08 69° NW 05:34:08 69° NW 05:38:12 10° N
CENTAUR R/B 2.4 05:33:38 55° SE 05:33:59 56° ESE 05:40:26 10° NE
CZ-3 Stage 3 4.3 05:17:15 10° W 05:35:30 31° SW 05:35:53 31° SW
Cosmos 2074 Rocket 3.9 05:38:32 59° SSE 05:39:47 80° E 05:46:01 10° N
Cosmos 1025 Rocket 3.8 05:40:57 41° E 05:40:57 41° E 05:44:44 10° NNE
Cosmos 2221 Rocket 3.6 05:43:28 74° NW 05:43:28 74° NW 05:47:43 10° N
COSMOS 2428 4.0 05:46:46 10° NW 05:51:11 25° W 05:51:11 25° W
Sich 1 Rocket 3.8 05:48:00 10° NNW 05:51:57 60° WNW 05:51:57 60° WNW
Cosmos 405 Rocket 4.2 05:52:53 10° NNW 05:55:13 28° WNW 05:55:13 28° WNW
Helios 1A Rocket 4.5 05:58:05 24° E 05:58:35 25° ENE 06:01:43 10° NNE
Cosmos 1898 Rocket 4.2 06:01:58 37° ESE 06:02:23 38° ESE 06:07:09 10° NE
Resurs 1-4 Rocket 4.3 06:01:48 10° ENE 06:04:25 14° E 06:06:19 12° ESE
Cosmos 2263 Rocket 2.6 06:03:48 45° SE 06:04:26 47° ESE 06:09:46 10° NE
SL-12 R/B(2) 4.2 06:09:01 40° SW 06:12:32 86° NW 06:22:06 10° NE
CZ-4C R/B 3.9 06:13:09 13° W 06:16:14 24° NW 06:20:46 10° NNE
Cosmos 1328 4.5 06:18:25 45° NW 06:18:25 45° NW 06:21:40 10° N
Nadezhda 3 Rocket 3.9 06:12:24 10° N 06:18:41 81° W 06:20:16 53° S
NOSS 3-2 (A) 2.9 06:18:58 66° S 06:19:40 77° ESE 06:25:34 10° NE
NOSS 3-2 (C) 3.9 06:25:20 35° SE 06:25:54 36° ESE 06:31:08 10° NE
Okean 1 Rocket 3.9 06:24:17 10° NNW 06:27:57 39° WNW 06:27:57 39° WNW
Nimbus 7 Rocket 4.4 06:24:34 10° NNE 06:30:39 77° WNW 06:32:23 49° SW
In-Cosmos 22 Rocket 4.2 06:35:13 52° S 06:36:43 82° E 06:42:34 10° NNE
Cosmos 292 Rocket 3.7 06:38:10 65° WSW 06:38:44 74° WNW 06:43:32 10° NNE
SL-16 R/B 2.1 06:39:12 10° NNW 06:44:54 79° WSW 06:46:35 47° S
SL-4 R/B 4.0 06:43:47 10° WNW 06:45:06 19° WNW 06:45:06 19° WNW
BREEZE-M DEB (TANK) 3.8 06:49:10 20° E 06:49:10 20° E 06:50:39 10° ESE
Cosmos 1975 Rocket 3.0 06:49:56 62° WSW 06:50:12 64° W 06:54:34 10° N
H-2A R/B 4.3 06:48:04 10° NNW 06:50:16 14° WNW 06:51:12 13° WNW
Cosmos 2237 Rocket 3.7 06:47:33 10° NW 06:51:07 20° W 06:51:07 20° W
Cosmos 2082 3.7 06:51:06 48° SW 06:52:41 75° WNW 06:58:19 10° NNE
Cosmos 2227 Rocket 3.7 06:52:28 20° W 06:55:03 28° NW 06:59:53 10° N
IDEFIX/ARIANE 42P 3.0 06:50:34 10° NNE 06:55:43 54° E 06:57:28 37° SSE
H-2A R/B 4.0 06:55:28 10° NNE 06:59:18 44° E 06:59:56 40° SE
SL-8 Rocket 3.9 06:57:09 42° S 06:59:23 86° W 07:05:37 10° N
CZ-2C R/B 3.6 06:55:47 17° SE 06:59:32 44° ENE 07:04:37 10° N
Cosmos 1943 4.2 06:54:14 10° NNW 06:59:35 44° ENE 07:04:54 10° SE
CZ-2C R/B 4.2 06:56:34 10° NNE 07:01:29 36° E 07:03:52 24° SE
CZ-2D R/B 2.8 07:00:15 10° NNE 07:05:23 46° E 07:07:38 29° SSE
Cosmos 1455 Rocket 3.7 07:01:29 10° NNW 07:05:36 38° W 07:05:42 38° W
COBE Rocket 3.9 07:01:05 10° N 07:06:16 86° WNW 07:07:50 47° SSW
Meteor 1-11 4.3 07:04:41 43° SSW 07:06:35 70° W 07:12:24 10° N
Cosmos 858 Rocket 4.4 07:12:16 45° SSW 07:13:55 84° WNW 07:19:10 10° NNE
Cosmos 2219 4.4 07:15:09 23° W 07:17:39 32° WNW 07:22:39 10° N
Cosmos 1959 Rocket 4.5 07:16:53 36° SSW 07:19:37 76° W 07:25:59 10° N
Cosmos 1536 Rocket 3.7 07:18:23 41° SSE 07:19:48 68° E 07:24:12 10° NNE
Cosmos 1606 2.5 07:16:24 10° NNW 07:19:53 61° W 07:19:53 61° W
Cosmos 1727 Rocket 4.5 07:14:12 10° N 07:20:27 60° E 07:25:41 15° SSE
NPP 3.6 07:17:05 10° NNE 07:22:31 89° WNW 07:24:45 37° SSW
Cosmos 1867 4.1 07:20:35 32° S 07:22:41 49° ESE 07:27:56 10° NE
CENTAUR R/B 3.9 07:20:44 14° W 07:25:03 31° NW 07:31:15 10° NNE
Cosmos 2227 4.2 07:24:37 36° SSW 07:27:04 80° ESE 07:32:51 10° NNE
Cosmos 1900 4.3 07:25:54 41° SW 07:27:45 85° WNW 07:32:53 10° NNE
Iridium 921 4.4 07:29:09 61° WSW 07:29:18 62° W 07:32:43 10° N
Cosmos 2341 Rocket 4.5 07:27:49 31° SW 07:30:19 46° WNW 07:36:17 10° N
ADEOS II 2.6 07:26:11 10° NNE 07:31:20 53° E 07:34:19 24° SSE
USA 238 DEB 3.7 07:28:49 31° S 07:31:47 64° ESE 07:38:18 10° NE
USA 238 3.7 07:28:52 31° S 07:31:50 63° ESE 07:38:21 10° NE
Helios 1A Rocket 4.3 07:33:25 21° W 07:33:25 21° W 07:35:51 10° NW
Cosmos 923 Rocket 4.2 07:30:59 10° NNW 07:36:02 49° WSW 07:37:48 35° SSW
Cosmos 1844 4.4 07:33:31 23° S 07:36:46 47° ESE 07:42:18 10° NE
Cosmos 1461 3.8 07:36:27 28° W 07:37:41 35° NW 07:41:17 10° NNE
Cosmos 1937 Rocket 4.3 07:38:33 27° WSW 07:40:44 38° WNW 07:45:39 10° N
MOZ.5/SAFIR/RUBIN 5/SL-8 4.4 07:39:56 33° WSW 07:40:48 36° W 07:45:05 10° NNW
Meteor 2-13 Rocket 4.4 07:35:36 10° N 07:41:44 87° E 07:46:27 18° S
Resurs 1-4 Rocket 2.1 07:39:26 10° N 07:44:43 73° WNW 07:47:22 30° SSW
Cosmos 2263 Rocket 3.6 07:45:28 17° W 07:48:33 26° NW 07:53:13 10° N
AQUA 3.9 07:52:19 10° NNE 07:57:02 74° ESE 08:00:01 23° S
Cosmos 1821 Rocket 4.2 08:00:01 24° SSW 08:03:34 55° W 08:09:36 10° N
SL-24 DEB 4.2 07:59:21 10° N 08:03:56 84° E 08:07:09 20° S
Meteor 1-28 Rocket 3.1 08:01:25 18° SSE 08:03:59 75° ENE 08:07:32 10° N
Meteor 1-27 4.4 07:59:52 10° NNW 08:05:35 58° W 08:09:44 19° SSW
Cosmos 1844 Rocket 2.6 08:04:20 24° SSW 08:07:49 83° WNW 08:13:26 10° NNE
Delta 2 Rocket 3.9 08:07:47 30° SW 08:08:43 34° S 08:12:34 10° ESE
Cosmos 1892 Rocket 3.9 08:05:35 17° S 08:08:52 64° E 08:13:15 10° NNE
ALOS 2.4 08:05:20 10° NNE 08:09:57 72° ESE 08:13:25 17° S
Cosmos 1607 4.4 08:07:19 10° NNW 08:13:43 65° NE 08:19:56 10° SE
Cosmos 1437 Rocket 3.4 08:12:41 26° WSW 08:14:12 37° WNW 08:17:45 10° N
NOSS 3-2 (C) 4.3 08:12:44 15° WSW 08:16:39 36° NW 08:22:19 10° NNE
Cosmos 1680 Rocket 4.5 08:13:41 10° NW 08:18:02 28° W 08:20:14 20° SW
Alouette 2 Rocket 3.8 08:14:22 14° S 08:18:37 69° E 08:22:24 10° NNE
USA 267 3.3 08:12:18 10° NE 08:18:52 82° SE 08:24:01 18° SW
Cosmos 2228 4.4 08:17:22 10° NW 08:20:40 22° W 08:21:58 19° WSW
Cosmos 1818 4.3 08:16:19 10° NW 08:21:05 31° WSW 08:24:48 15° SSW
SAR-Lupe-1 4.1 08:24:44 10° NNE 08:28:20 81° ESE 08:31:08 16° S
Cosmos 1603 3.9 08:28:11 10° NNW 08:33:44 52° WSW 08:39:15 10° S
IDEFIX/ARIANE 42P 4.2 08:31:04 10° NNW 08:34:48 20° WNW 08:38:13 11° WSW
SL-16 R/B 2.6 08:29:49 10° S 08:35:59 61° WSW 08:42:10 10° NNW
CZ-2C R/B 3.8 08:37:16 16° SW 08:39:59 23° W 08:44:10 10° NW
CZ-2C R/B 4.2 08:36:34 10° N 08:41:08 29° WNW 08:44:53 13° WSW
Cosmos 2123 Rocket 4.0 08:35:14 10° NNW 08:41:23 70° W 08:47:32 10° S
Cosmos 1934 Rocket 4.1 08:36:19 12° SSW 08:42:17 66° W 08:48:38 10° N
SEDSat Delta rocket 4.3 08:41:06 16° SSW 08:42:48 20° S 08:45:47 10° SE
Cosmos 1943 4.2 08:38:44 10° NW 08:43:19 26° WSW 08:47:43 11° SSW
CZ-2D R/B 3.6 08:40:55 10° NNW 08:45:03 23° WNW 08:48:55 11° WSW
Envisat 3.0 08:47:23 10° NNE 08:52:29 89° E 08:57:34 10° SSW
USA 234 4.3 08:46:38 10° ESE 08:52:54 51° NNE 08:59:10 10° NW
Cosmos 921 Rocket 3.8 08:50:10 10° NW 08:53:50 30° W 08:57:28 10° SSW
Cosmos 1048 Rocket 4.2 08:49:54 10° NNW 08:54:56 49° WSW 09:00:00 10° S
ASTEX 1 4.3 08:52:23 11° SSW 08:56:19 30° W 09:00:36 10° NNW
Cosmos 1125 Rocket 3.9 08:57:57 11° SW 09:02:58 53° WNW 09:08:10 10° N
CZ-2C R/B 2.4 08:58:45 10° NNE 09:03:19 73° ESE 09:07:54 10° S
Cosmos 1238 Rocket 2.4 09:05:13 10° NNW 09:08:30 54° W 09:11:27 10° S
Cosmos-2242 3.4 09:05:16 10° N 09:09:35 67° E 09:13:50 10° SSE
Lacrosse 5 4.3 09:07:28 10° SE 09:09:43 13° ESE 09:11:58 10° E
ADEOS II 3.7 09:06:45 10° NNW 09:10:32 21° WNW 09:14:18 10° WSW
Cosmos 1812 3.5 09:08:15 10° NNW 09:11:23 29° W 09:14:30 10° SSW
BlueWalker 3 4.4 09:08:49 10° NNW 09:11:59 25° NNE 09:15:08 10° E
Cosmos 2150 Rocket 4.1 09:10:18 10° SSW 09:15:29 75° WNW 09:20:49 10° NNE
Cosmos 1782 2.9 09:12:24 10° N 09:16:16 76° E 09:20:05 10° SSE
Cosmos 2058 3.7 09:12:47 10° SW 09:16:28 33° WNW 09:20:10 10° N
Cosmos 1833 Rocket 3.8 09:15:33 10° NNW 09:21:02 50° ENE 09:26:29 10° SE
